TimePDT,TemperatureF,Dew PointF,Humidity,Sea Level PressureIn,VisibilityMPH,Wind Direction,Wind SpeedMPH,Gust SpeedMPH,PrecipitationIn,Events,Conditions,WindDirDegrees,DateUTC
12:15 AM,57.2,30.2,36,30.04,10.0,East,5.8,-,N/A,,Clear,80,2011-10-26 07:15:00
12:35 AM,57.2,30.2,36,30.05,10.0,ENE,6.9,-,N/A,,Clear,70,2011-10-26 07:35:00
12:55 AM,57.2,28.4,33,30.05,10.0,Calm,Calm,-,N/A,,Clear,0,2011-10-26 07:55:00
1:15 AM,57.2,28.4,33,30.06,10.0,ENE,4.6,-,N/A,,Clear,60,2011-10-26 08:15:00
1:35 AM,55.4,28.4,36,30.05,10.0,ENE,6.9,-,N/A,,Clear,60,2011-10-26 08:35:00
1:55 AM,55.4,26.6,33,30.05,10.0,Calm,Calm,-,N/A,,Clear,0,2011-10-26 08:55:00
2:15 AM,55.4,24.8,31,30.06,10.0,East,4.6,-,N/A,,Clear,80,2011-10-26 09:15:00
2:35 AM,55.4,24.8,31,30.06,10.0,East,4.6,-,N/A,,Clear,80,2011-10-26 09:35:00
2:55 AM,55.4,24.8,31,30.06,10.0,ENE,4.6,-,N/A,,Clear,60,2011-10-26 09:55:00
3:15 AM,53.6,24.8,33,30.06,10.0,ENE,5.8,-,N/A,,Clear,60,2011-10-26 10:15:00
3:35 AM,51.8,26.6,38,30.05,10.0,ENE,4.6,-,N/A,,Clear,60,2011-10-26 10:35:00
3:55 AM,53.6,24.8,33,30.05,10.0,Calm,Calm,-,N/A,,Clear,0,2011-10-26 10:55:00
4:15 AM,53.6,21.2,28,30.05,10.0,ENE,5.8,-,N/A,,Clear,60,2011-10-26 11:15:00
4:35 AM,51.8,23.0,33,30.05,10.0,Calm,Calm,-,N/A,,Clear,0,2011-10-26 11:35:00
4:55 AM,46.4,26.6,46,30.05,10.0,Calm,Calm,-,N/A,,Clear,0,2011-10-26 11:55:00
5:15 AM,51.8,23.0,33,30.05,10.0,NNE,5.8,-,N/A,,Clear,20,2011-10-26 12:15:00
5:35 AM,44.6,26.6,49,30.06,10.0,North,4.6,-,N/A,,Clear,350,2011-10-26 12:35:00
6:15 AM,51.8,23.0,33,30.06,10.0,NNE,5.8,-,N/A,,Clear,30,2011-10-26 13:15:00
6:35 AM,51.8,21.2,30,30.06,10.0,NNE,5.8,-,N/A,,Clear,30,2011-10-26 13:35:00
6:55 AM,48.2,23.0,37,30.07,10.0,Calm,Calm,-,N/A,,Clear,0,2011-10-26 13:55:00
7:15 AM,44.6,23.0,43,30.08,10.0,Calm,Calm,-,N/A,,Clear,0,2011-10-26 14:15:00
7:35 AM,46.4,23.0,40,30.08,10.0,Calm,Calm,-,N/A,,Clear,0,2011-10-26 14:35:00
7:55 AM,44.6,26.6,49,30.09,10.0,Calm,Calm,-,N/A,,Clear,0,2011-10-26 14:55:00
8:15 AM,44.6,26.6,49,30.09,10.0,Calm,Calm,-,N/A,,Clear,0,2011-10-26 15:15:00
8:35 AM,50.0,28.4,43,30.10,10.0,Calm,Calm,-,N/A,,Clear,0,2011-10-26 15:35:00
8:55 AM,51.8,28.4,41,30.11,10.0,Calm,Calm,-,N/A,,Clear,0,2011-10-26 15:55:00
9:15 AM,55.4,23.0,29,30.11,10.0,East,5.8,-,N/A,,Clear,90,2011-10-26 16:15:00
9:35 AM,57.2,26.6,31,30.12,10.0,Calm,Calm,-,N/A,,Clear,0,2011-10-26 16:35:00
9:55 AM,59.0,24.8,27,30.12,10.0,Calm,Calm,-,N/A,,Clear,0,2011-10-26 16:55:00
10:15 AM,60.8,24.8,25,30.12,10.0,Calm,Calm,-,N/A,,Clear,0,2011-10-26 17:15:00
10:35 AM,62.6,28.4,27,30.12,10.0,ENE,3.5,-,N/A,,Clear,70,2011-10-26 17:35:00
10:55 AM,64.4,26.6,24,30.11,10.0,NE,6.9,-,N/A,,Clear,40,2011-10-26 17:55:00
11:15 AM,64.4,28.4,26,30.10,10.0,ENE,3.5,-,N/A,,Clear,70,2011-10-26 18:15:00
11:35 AM,66.2,26.6,23,30.10,10.0,Calm,Calm,-,N/A,,Clear,0,2011-10-26 18:35:00
11:55 AM,69.8,24.8,18,30.10,10.0,ESE,8.1,-,N/A,,Clear,110,2011-10-26 18:55:00
12:15 PM,64.4,35.6,34,30.10,10.0,West,9.2,-,N/A,,Clear,270,2011-10-26 19:15:00
12:35 PM,64.4,32.0,30,30.10,10.0,West,9.2,-,N/A,,Clear,270,2011-10-26 19:35:00
12:55 PM,64.4,32.0,30,30.10,10.0,West,6.9,-,N/A,,Clear,280,2011-10-26 19:55:00
1:15 PM,64.4,32.0,30,30.09,10.0,WNW,5.8,-,N/A,,Clear,290,2011-10-26 20:15:00
1:35 PM,66.2,32.0,28,30.09,10.0,WNW,6.9,-,N/A,,Clear,290,2011-10-26 20:35:00
1:55 PM,66.2,30.2,26,30.08,10.0,WNW,9.2,-,N/A,,Clear,300,2011-10-26 20:55:00
2:15 PM,68.0,30.2,24,30.08,10.0,WNW,8.1,-,N/A,,Clear,300,2011-10-26 21:15:00
2:35 PM,68.0,30.2,24,30.07,10.0,NW,6.9,-,N/A,,Clear,310,2011-10-26 21:35:00
2:55 PM,68.0,32.0,26,30.07,10.0,WNW,8.1,-,N/A,,Clear,290,2011-10-26 21:55:00
3:15 PM,69.8,30.2,23,30.07,10.0,NW,4.6,-,N/A,,Clear,310,2011-10-26 22:15:00
3:35 PM,68.0,30.2,24,30.07,10.0,West,8.1,-,N/A,,Clear,280,2011-10-26 22:35:00
3:55 PM,68.0,30.2,24,30.07,10.0,WNW,9.2,-,N/A,,Clear,290,2011-10-26 22:55:00
4:35 PM,66.2,28.4,24,30.06,10.0,WNW,8.1,-,N/A,,Clear,290,2011-10-26 23:35:00
4:55 PM,66.2,28.4,24,30.06,10.0,WNW,4.6,-,N/A,,Clear,300,2011-10-26 23:55:00
5:15 PM,66.2,28.4,24,30.06,10.0,West,5.8,-,N/A,,Clear,280,2011-10-27 00:15:00
5:35 PM,64.4,30.2,28,30.06,10.0,West,4.6,-,N/A,,Clear,280,2011-10-27 00:35:00
5:55 PM,62.6,30.2,30,30.06,10.0,Calm,Calm,-,N/A,,Clear,0,2011-10-27 00:55:00
6:15 PM,60.8,32.0,34,30.06,10.0,Calm,Calm,-,N/A,,Clear,0,2011-10-27 01:15:00
6:35 PM,53.6,32.0,44,30.06,10.0,Calm,Calm,-,N/A,,Clear,0,2011-10-27 01:35:00
6:55 PM,50.0,33.8,54,30.06,10.0,Calm,Calm,-,N/A,,Clear,0,2011-10-27 01:55:00
7:15 PM,51.8,33.8,50,30.07,10.0,Calm,Calm,-,N/A,,Clear,0,2011-10-27 02:15:00
7:35 PM,50.0,32.0,50,30.07,10.0,Calm,Calm,-,N/A,,Clear,0,2011-10-27 02:35:00
7:55 PM,50.0,32.0,50,30.07,10.0,Calm,Calm,-,N/A,,Clear,0,2011-10-27 02:55:00
8:15 PM,50.0,33.8,54,30.07,10.0,Calm,Calm,-,N/A,,Clear,0,2011-10-27 03:15:00
8:35 PM,51.8,32.0,47,30.07,10.0,Calm,Calm,-,N/A,,Clear,0,2011-10-27 03:35:00
8:55 PM,51.8,32.0,47,30.06,10.0,East,6.9,-,N/A,,Clear,100,2011-10-27 03:55:00
9:35 PM,53.6,35.6,51,30.06,10.0,East,8.1,-,N/A,,Clear,100,2011-10-27 04:35:00
9:55 PM,53.6,35.6,51,30.07,10.0,ESE,6.9,-,N/A,,Clear,110,2011-10-27 04:55:00
10:15 PM,53.6,37.4,54,30.06,10.0,East,6.9,-,N/A,,Clear,100,2011-10-27 05:15:00
11:15 PM,53.6,35.6,51,30.06,10.0,ESE,9.2,-,N/A,,Clear,120,2011-10-27 06:15:00
11:35 PM,51.8,35.6,54,30.06,10.0,East,6.9,-,N/A,,Clear,100,2011-10-27 06:35:00
11:55 PM,51.8,35.6,54,30.06,10.0,ESE,8.1,-,N/A,,Clear,120,2011-10-27 06:55:00